Wind_Speed
2 2 6 10 8 8 5 5 12 13 15 4 13 17 11 9 8 11 11 9 11 11 11 13 23 23 25 23 26 28 31 28 34 29 27 24 29 34 38 34 24 32 36 35
4 7 10 5 6 7 8 12 14 12 14 6 9 11 14 6 7 8 10 9 11 5 3 3 17 25 28 27 22 22 24 27 32 32 28 23 22 28 38 35 31 38 44 29
7 9 1 4 7 8 7 6 9 12 7 5 2 7 8 5 5 6 6 4 5 9 8 5 7 21 28 27 27 26 24 22 22 23 22 19 16 9 17 23 31 32 32 31
6 10 10 11 6 3 3 4 7 7 3 7 3 11 10 7 7 5 8 7 8 7 6 5 9 10 23 29 25 23 21 19 16 15 14 14 14 10 8 12 17 24 21 21
11 5 6 6 8 3 7 4 5 4 4 2 3 1 9 4 7 9 9 9 6 10 9 11 11 21 28 29 30 27 24 20 16 11 10 10 9 11 12 13 13 11 14 22
6 1 2 3 2 4 3 3 2 1 3 2 6 7 10 12 8 5 4 8 9 12 10 12 18 22 21 26 26 25 22 19 16 14 13 12 12 12 11 9 8 10 15 15
0 2 2 2 2 2 8 6 4 4 2 11 5 4 17 6 8 6 5 10 11 12 15 9 12 15 21 28 30 25 21 18 15 13 11 10 11 11 10 9 8 8 7 7
2 5 2 2 3 5 1 5 4 6 4 7 5 7 6 5 2 3 1 6 8 10 7 11 15 17 22 25 28 25 21 17 15 11 10 8 6 8 8 8 7 6 5 6
2 4 3 1 3 7 3 5 4 3 1 2 4 7 10 6 1 3 7 9 11 9 9 8 8 6 17 24 29 28 23 20 19 17 14 12 12 12 10 8 6 4 3 3
3 3 4 3 1 5 4 3 2 2 4 4 4 4 8 10 6 4 5 4 6 8 11 10 8 9 9 9 24 29 29 27 25 23 22 20 19 16 13 11 9 7 5 6
3 3 4 3 2 3 3 2 2 1 3 3 1 4 4 4 9 8 7 4 5 6 7 7 6 10 10 6 12 18 29 30 29 26 24 22 20 20 15 12 12 10 10 10
2 4 3 8 7 8 4 3 5 2 3 3 2 5 6 10 16 11 11 11 5 6 4 5 6 8 11 10 7 17 21 18 27 28 27 24 20 20 18 15 15 12 13 13
6 1 2 8 5 5 2 2 2 2 1 4 1 5 1 3 5 7 9 11 8 6 10 8 3 0 1 7 6 5 12 26 27 24 27 26 24 22 21 20 17 13 10 8
8 4 6 6 6 4 6 6 6 5 3 3 8 12 9 5 6 11 10 10 10 8 7 9 5 6 6 6 11 7 7 9 22 27 24 26 26 25 22 19 17 14 10 10
3 5 5 7 9 8 9 12 10 8 14 8 9 10 4 6 5 7 8 8 8 9 12 10 7 5 6 10 13 12 11 9 9 14 17 19 20 20 20 19 16 14 12 13
1 3 1 4 10 7 9 5 9 7 5 9 13 12 4 5 5 6 8 11 13 13 13 13 9 7 6 10 13 14 14 14 16 17 18 20 23 23 22 21 19 17 16 17
3 4 2 4 4 8 3 1 2 4 5 5 5 4 6 9 8 7 8 14 16 17 17 8 8 8 10 15 22 22 25 25 22 19 26 30 31 33 33 29 25 21 21 22
5 4 2 3 5 2 2 4 6 10 12 4 5 6 10 13 14 13 13 17 17 15 11 12 12 17 23 23 24 26 28 26 26 26 25 29 31 34 36 32 28 26 25 25
6 4 1 2 1 6 4 4 4 7 13 4 5 11 13 13 14 16 9 9 10 10 13 18 25 29 33 31 29 28 30 29 28 31 29 26 26 28 31 32 32 30 29 28
5 1 4 2 1 4 4 3 6 5 7 3 6 9 15 15 14 16 8 16 21 21 26 24 29 26 31 37 38 38 36 33 32 32 32 32 31 34 32 35 33 35 33 31
2 2 4 3 3 7 2 5 5 1 4 10 9 13 16 16 15 24 24 23 19 23 23 29 40 41 40 41 42 36 35 36 39 35 33 37 37 37 37 34 37 33 31 28
4 2 2 2 2 6 1 2 1 3 6 11 13 16 20 21 23 24 25 24 27 27 29 38 31 34 41 40 37 34 32 40 39 34 33 29 29 32 30 29 28 27 24 25
2 4 3 6 5 2 2 5 6 3 9 12 15 19 21 23 26 23 23 28 28 29 26 35 30 32 38 37 39 32 35 38 37 34 32 32 33 29 30 28 24 21 23 24
0 2 1 4 2 4 8 2 2 8 12 16 17 20 22 25 20 29 25 25 24 25 24 31 25 23 24 36 36 37 37 36 33 30 29 27 27 25 24 21 21 21 21 21
3 2 1 5 5 9 2 10 14 17 17 19 21 22 22 25 23 26 26 26 24 23 23 29 21 21 24 38 34 34 34 33 26 25 25 26 25 25 22 23 25 24 27 27
2 3 2 4 1 4 12 13 18 17 19 20 21 22 23 17 25 29 26 23 22 22 24 22 22 23 27 32 31 27 28 24 27 23 23 21 20 20 21 20 20 28 27 28
Wind_Direction
11 64 236 235 209 232 239 260 264 279 278 278 274 272 276 268 290 291 287 227 229 233 244 196 206 200 189 188 185 189 192 197 200 199 199 201 203 205 212 229 246 256 243 227
9 253 245 229 233 231 244 259 274 273 261 194 252 260 278 244 257 268 272 229 224 246 212 198 186 186 186 184 184 178 179 188 202 203 204 205 193 202 217 218 210 232 237 232
193 238 284 260 281 275 258 239 270 265 276 258 252 283 284 277 268 279 268 239 271 239 210 191 217 189 187 187 183 183 183 177 182 193 195 202 212 189 196 211 219 227 237 231
233 253 234 260 242 230 265 282 280 267 228 261 154 275 279 273 272 259 273 272 273 255 250 221 203 207 197 192 181 175 176 181 172 175 183 195 211 210 208 212 231 235 233 228
228 198 197 241 253 177 235 303 285 300 262 8 239 202 281 248 271 267 279 294 274 239 233 230 205 211 204 192 179 175 170 171 177 179 187 197 211 239 250 258 251 246 240 242
232 302 115 225 264 226 322 314 292 62 131 244 251 187 271 270 238 232 230 292 295 300 261 229 216 201 198 187 172 169 170 166 170 178 183 182 188 203 216 224 247 255 248 233
357 253 296 201 24 71 49 40 318 292 250 252 169 213 245 283 276 249 278 297 306 280 273 223 177 179 169 180 173 167 170 175 180 182 184 187 191 203 214 219 221 234 238 239
163 313 16 31 129 206 161 167 193 271 249 275 339 242 263 256 325 81 17 339 336 336 286 210 192 176 175 175 171 173 180 179 183 190 192 195 197 204 217 221 211 223 242 258
151 265 293 156 190 145 188 198 161 223 250 297 242 300 293 293 235 7 50 26 4 10 29 22 13 115 157 174 181 184 184 190 195 200 205 211 213 219 227 237 235 244 271 277
190 270 255 297 138 239 174 142 245 250 225 210 264 254 247 326 314 318 360 57 7 23 35 29 28 34 351 293 198 191 194 199 205 212 210 219 226 230 241 240 245 263 269 278
130 128 285 355 203 209 325 268 234 263 236 229 285 255 210 289 297 311 286 254 129 57 48 32 16 15 21 331 280 234 208 209 214 212 208 215 220 226 236 240 243 254 263 271
44 132 261 251 290 275 200 221 161 250 292 273 286 273 40 11 322 321 311 311 290 138 105 48 22 26 360 355 286 259 259 239 225 210 211 213 214 223 228 232 247 258 266 269
180 129 340 336 351 353 13 180 154 85 337 236 204 269 8 6 315 330 343 334 298 280 286 270 200 342 287 325 340 289 257 248 238 250 234 220 221 224 235 236 226 218 229 234
126 143 173 205 226 203 282 261 243 172 214 241 230 273 301 328 332 333 337 332 325 319 320 302 300 261 244 234 267 277 303 259 236 235 254 249 235 230 216 212 219 227 240 261
117 200 196 239 250 250 265 277 286 217 237 227 262 271 310 307 305 311 317 328 327 323 320 311 293 271 265 271 250 254 269 260 256 232 224 237 236 221 214 219 226 237 253 274
35 250 225 270 264 267 283 299 309 19 324 250 257 274 225 288 311 312 312 320 314 306 298 297 297 309 321 321 312 307 304 292 259 236 229 220 221 228 232 235 238 248 266 277
177 153 114 269 310 306 302 103 289 269 248 260 254 253 328 318 307 300 288 299 291 290 293 289 293 295 289 290 297 295 297 299 291 279 264 243 236 235 234 237 243 247 256 265
151 134 151 275 347 257 236 187 255 292 297 268 302 321 316 305 300 291 281 272 276 276 267 286 291 293 283 270 272 278 280 280 282 280 268 253 241 239 240 237 238 243 249 258
182 140 154 202 211 282 231 231 281 311 297 168 314 315 301 297 292 286 255 254 266 257 269 272 274 275 280 282 283 278 272 267 263 261 260 254 243 237 233 236 240 244 245 250
102 324 135 143 215 253 234 244 316 324 279 107 314 296 307 321 303 298 287 291 283 276 271 268 267 273 270 263 264 268 266 262 255 255 255 253 243 237 231 232 234 241 244 250
335 319 168 169 230 280 226 302 314 237 258 324 325 307 301 297 283 292 294 291 293 294 289 285 284 278 268 261 256 249 254 253 252 252 256 245 240 232 229 226 228 232 239 242
177 159 208 172 218 274 52 358 145 252 323 316 309 298 296 290 292 292 293 300 299 293 286 282 277 271 266 262 258 249 246 251 246 242 242 250 238 225 224 220 226 233 233 241
163 200 200 181 225 215 130 219 266 337 299 295 300 294 293 295 301 298 305 297 298 295 289 287 282 278 272 264 251 246 250 247 235 234 234 235 237 238 221 223 219 226 231 229
10 65 190 17 310 325 294 237 271 304 309 310 305 307 307 301 315 308 302 304 300 299 296 292 283 273 268 262 251 243 244 242 226 224 223 226 225 217 211 215 223 221 218 220
214 11 310 265 311 326 84 332 327 320 318 316 314 308 308 313 310 312 306 306 305 302 303 298 288 280 268 260 247 238 234 229 228 220 214 215 212 212 219 224 220 215 223 223
166 182 147 247 20 254 291 305 311 311 313 311 311 313 313 317 316 312 308 308 304 304 304 302 298 296 290 267 228 220 216 218 215 208 208 213 217 207 210 213 214 220 226 225
Height
761 775 782 775 774 769 773 776 776 761 748 754 752 744 736 731 728 722 715 717 712 708 698 698 701 707 710 715 715 717 719 721 726 731 735 740 741 746 755 759 757 762 766 759
773 779 764 761 764 768 770 774 770 755 746 753 750 746 730 726 722 718 714 714 711 707 702 701 701 704 707 708 713 714 716 720 723 725 729 734 739 744 751 754 754 758 762 755
775 760 752 758 761 765 765 769 762 760 745 742 742 748 736 724 718 713 710 709 709 706 703 703 704 699 703 706 708 711 714 718 720 722 724 728 733 740 746 747 751 752 755 751
766 749 754 757 761 756 764 749 750 750 754 767 739 759 738 729 725 718 715 709 706 704 702 701 701 701 702 703 707 710 712 716 718 721 724 726 729 733 737 740 743 746 747 748
756 750 753 757 753 749 759 748 750 747 755 757 752 765 742 724 725 717 712 706 703 702 700 699 699 697 696 700 702 707 710 712 715 718 722 725 728 729 732 736 738 740 741 744
747 742 745 748 746 747 746 750 752 759 765 773 744 757 738 722 722 710 702 702 698 691 689 688 687 691 695 698 701 704 708 710 713 716 720 722 725 728 731 733 735 736 739 739
751 751 746 744 752 749 759 767 786 777 774 753 740 750 724 712 707 706 705 703 695 688 681 681 683 687 691 696 696 700 705 709 714 716 717 719 721 724 726 730 731 734 736 739
765 767 749 746 750 759 763 769 787 770 769 755 750 747 725 707 700 697 702 702 695 688 681 676 674 676 684 689 692 697 702 707 710 713 714 716 717 721 724 726 727 729 731 735
768 767 748 749 749 755 763 772 761 774 767 770 757 736 716 706 702 700 701 701 700 689 683 684 684 676 682 686 689 693 699 703 706 708 710 713 715 718 720 722 722 723 726 730
758 771 754 748 748 750 758 759 768 768 761 759 751 743 735 717 708 705 700 704 701 694 689 690 690 688 692 693 690 692 695 698 701 704 706 709 712 714 715 717 718 720 722 724
758 768 763 756 755 759 761 760 768 767 763 766 766 742 723 724 719 706 702 694 697 697 694 693 694 693 692 694 696 697 693 694 696 699 702 706 708 710 711 713 715 717 721 725
763 774 776 765 754 750 751 753 762 768 761 757 758 751 726 724 721 714 708 696 691 691 693 694 694 692 693 693 693 694 696 695 694 694 698 700 703 706 708 711 714 717 720 723
763 777 786 775 765 757 754 757 763 771 770 763 769 749 718 717 721 721 717 708 696 689 686 689 694 692 691 691 691 689 688 690 691 696 698 697 699 703 706 708 710 713 715 718
753 777 773 786 767 770 766 755 753 756 767 758 747 734 721 723 722 718 718 714 708 700 694 688 688 689 686 685 689 688 688 687 688 689 693 696 696 698 700 703 706 707 710 712
760 766 769 764 758 755 753 750 746 755 745 750 733 734 730 728 724 722 719 716 712 705 698 694 689 688 689 686 682 685 686 685 686 685 683 688 693 695 696 698 700 703 705 707
765 766 759 761 751 750 748 745 743 735 732 732 731 730 728 725 723 722 722 718 712 704 699 695 691 688 686 684 684 684 685 685 685 682 682 682 686 689 692 694 696 697 699 702
763 772 776 766 753 753 752 745 746 744 738 740 742 730 728 727 725 725 722 717 710 703 696 694 693 690 687 685 683 680 681 681 680 679 680 679 679 681 683 686 688 690 694 696
767 769 777 777 768 759 743 740 743 738 732 736 734 732 729 726 723 719 717 712 704 699 695 692 688 683 680 678 677 677 675 673 672 670 672 673 673 673 675 676 679 683 687 688
756 766 766 779 785 756 744 738 738 737 735 737 738 733 730 726 722 709 707 704 700 697 691 685 681 678 673 668 666 666 664 664 664 661 661 663 664 665 666 668 671 675 679 680
753 753 762 774 768 785 743 736 734 738 741 737 739 737 731 725 718 698 700 698 691 685 679 675 671 667 663 660 658 655 650 652 650 651 653 656 656 657 658 659 662 667 670 672
764 768 773 765 766 760 739 739 736 748 741 739 736 734 728 722 713 695 689 682 679 674 668 663 659 651 643 642 641 636 635 632 635 639 642 642 643 645 647 651 654 657 661 664
759 763 763 758 768 763 742 741 747 744 740 737 734 726 718 708 698 689 678 671 664 656 649 644 637 629 624 624 622 615 614 618 620 624 627 630 630 633 637 639 644 648 652 656
760 756 768 762 759 745 743 745 742 742 741 734 729 719 710 697 686 678 670 660 651 642 631 624 618 610 604 602 600 594 596 602 603 608 612 617 622 624 626 630 635 640 644 649
747 752 767 754 739 743 743 740 740 739 735 728 722 712 702 689 679 672 661 652 641 628 618 610 600 589 580 576 577 576 582 586 586 592 598 604 609 614 618 622 627 631 636 640
756 755 760 758 749 745 739 739 739 732 728 721 713 707 697 687 674 667 652 642 630 618 606 596 583 570 557 553 554 559 565 570 576 581 587 593 599 605 609 614 618 622 626 630
755 757 771 766 758 756 748 742 737 732 725 718 710 699 691 683 671 658 644 634 621 607 595 582 568 552 533 517 526 542 552 561 568 573 580 585 592 598 603 608 612 615 618 622